Location: Unspecified
(51.5147°N, 7.4673°E)
Time: 16:04:26
(UTC+01:00)

Tiros 1 despin weight - Visible Passes

Search period start: 10 February 2026 00:00
Search period end: 20 February 2026 00:00
Orbit: 557 x 594 km, 48.2° (Epoch: 8 February)

Date Brightness Start Highest point End Pass type
(mag) Time Alt. Az. Time Alt. Az. Time Alt. Az.
10 Feb ? 19:30:42 10° SW 19:34:35 37° SSE 19:35:13 35° SE visible
10 Feb ? 21:10:41 10° WSW 21:11:23 14° WSW 21:11:23 14° WSW visible
11 Feb ? 19:33:01 10° WSW 19:37:01 44° SSE 19:37:48 39° SE visible
11 Feb ? 21:13:11 10° W 21:13:58 15° W 21:13:58 15° W visible
12 Feb ? 19:35:25 10° WSW 19:39:29 50° S 19:40:21 42° SE visible
12 Feb ? 21:15:42 10° W 21:16:31 15° W 21:16:31 15° W visible
13 Feb ? 19:37:51 10° WSW 19:41:57 54° S 19:42:52 44° SE visible
13 Feb ? 21:18:13 10° W 21:19:02 15° W 21:19:02 15° W visible
14 Feb ? 19:40:18 10° WSW 19:44:25 55° S 19:45:21 44° SE visible
14 Feb ? 21:20:45 10° W 21:21:31 14° W 21:21:31 14° W visible
15 Feb ? 19:42:46 10° W 19:46:53 53° S 19:47:51 42° SE visible
15 Feb ? 21:23:20 10° W 21:24:01 14° W 21:24:01 14° W visible
16 Feb ? 19:45:15 10° W 19:49:19 49° S 19:50:21 39° SSE visible
16 Feb ? 21:26:00 10° W 21:26:31 12° WSW 21:26:31 12° WSW visible
17 Feb ? 19:47:45 10° W 19:51:44 43° SSW 19:52:52 34° SSE visible
17 Feb ? 21:28:48 10° WSW 21:29:03 11° WSW 21:29:03 11° WSW visible
18 Feb ? 19:50:15 10° W 19:54:07 36° SSW 19:55:26 28° SSE visible
19 Feb ? 19:52:49 10° W 19:56:28 29° SSW 19:58:03 22° SSE visible
